User: anonymous   Login
Location: Asheville, NC
(35.6000°N, 82.5500°W)
Time: 23:06:54
(UTC-04:00)
Language:

NUDT-PHONESAT - Orbit

View from above orbital plane
View from above orbital plane
View from above satellite
View from above satellite

Ground track
Ground track

The orbit data is extracted from the following two-line orbital elements,

1 40900U 15049B   18113.90609940  .00002360  00000-0  10909-3 0  9996
2 40900  97.4427 122.7905 0012461 212.6861 147.3604 15.21095490143665
Epoch (UTC): 23 April 2018 21:44:46
Eccentricity: 0.0012461
inclination: 97.4427°
perigee height: 494 km
apogee height: 511 km
right ascension of ascending node: 122.7905°
argument of perigee: 212.6861°
revolutions per day: 15.21095490
mean anomaly at epoch: 147.3604°
orbit number at epoch: 14366

The dashed part of the orbit path shows where the satellite is in the earth's shadow,  

DLR